Location: Caltech
(34.1382°N, 118.1253°W)
Time: 08:36:45
(UTC-07:00)

Oscar 10/S400 - Visible Passes

Search period start: 21 August 2017 00:00
Search period end: 31 August 2017 00:00
Orbit: 3992 x 35454 km, 27.1° (Epoch: 20 August)

Date Brightness Start Highest point End Pass type
(mag) Time Alt. Az. Time Alt. Az. Time Alt. Az.
21 Aug ? 04:20:32 10° SSW 04:43:17 39° SE 14:15:27 10° ESE visible
22 Aug ? 03:39:38 12° S 03:58:21 30° SE 13:09:56 10° ESE visible
23 Aug ? 02:58:54 13° S 03:13:29 22° SE 03:57:06 10° ENE visible
24 Aug ? 02:18:08 11° SSE 02:28:24 14° SE 02:46:01 10° E visible
24 Aug ? 15:43:38 10° WNW 16:54:58 16° WNW 18:42:00 10° W visible
25 Aug ? 14:36:27 10° WNW 16:13:34 24° W 19:13:35 10° W visible
26 Aug ? 13:39:23 10° WNW 15:31:31 33° W 19:36:05 10° W visible
27 Aug ? 12:46:48 10° W 14:48:42 42° W 19:55:50 10° W visible
28 Aug ? 11:56:47 10° W 14:04:55 51° W 20:15:44 10° WSW visible
29 Aug ? 11:08:25 10° W 13:19:46 60° WSW 20:34:57 10° SW visible
30 Aug ? 10:21:14 10° W 12:32:07 68° WSW 20:26:50 10° SSW visible
